Location: Hohenfelde
(53.8441°N, 9.6220°E)
Time: 10:59:10
(UTC+00:00)

NPP - Pass Details

Date: 14 July 2020
Orbit: 826 x 828 km, 98.7° (Epoch: 13 August)

Event Time Altitude Azimuth Distance (km) Brightness Sun altitude
Rises 01:15:58 0° 16° (NNE) 3,381 8.8 -11.0°
Reaches altitude 10° 01:18:20 10° 18° (NNE) 2,443 7.7 -10.8°
Maximum altitude 01:23:45 76° 105° (ESE) 856 3.8 -10.5°
Enters shadow 01:28:51 12° 191° (S) 2,311 5.4 -10.1°
